AAL1022 MYNN-KMIA

Flight info

Callsign AAL1022
Flight time 1h 0m
Altitude 18000
Route JAVIS2 NICKO BR49V FOWEE FOWEE2
Aircraft AT46/M-VGDW/C

Departure

Time 2026-05-04 13:19
Airport Lynden Pindling International Airport (MYNN)

Arrival

Time 2026-05-04 14:19
Airport Miami International Airport (KMIA)
Time Latitude Longitude Altitude Speed Heading
2026-05-04 13:09 25.04726 -77.46550 10 ft 0 kts 358°
2026-05-04 13:12 25.04723 -77.46550 19 ft 2 kts 359°
2026-05-04 13:12 25.04703 -77.46550 21 ft 4 kts
2026-05-04 13:12 25.04713 -77.46560 20 ft 9 kts 310°
2026-05-04 13:13 25.04715 -77.46601 19 ft 3 kts 255°
2026-05-04 13:13 25.04713 -77.46607 19 ft 2 kts 251°
2026-05-04 13:13 25.04672 -77.46604 19 ft 9 kts 140°
2026-05-04 13:13 25.04605 -77.46529 19 ft 15 kts 152°
2026-05-04 13:14 25.04525 -77.46548 19 ft 11 kts 182°
2026-05-04 13:14 25.04442 -77.46482 20 ft 14 kts 133°
2026-05-04 13:14 25.04351 -77.46383 20 ft 21 kts 134°
2026-05-04 13:14 25.04251 -77.46273 20 ft 20 kts 135°
2026-05-04 13:15 25.04138 -77.46148 20 ft 26 kts 135°
2026-05-04 13:15 25.04010 -77.46010 20 ft 28 kts 139°
2026-05-04 13:15 25.03903 -77.45884 19 ft 21 kts 134°
2026-05-04 13:15 25.03798 -77.45768 21 ft 21 kts 134°
2026-05-04 13:16 25.03703 -77.45660 19 ft 17 kts 134°
2026-05-04 13:16 25.03624 -77.45572 20 ft 17 kts 135°
2026-05-04 13:16 25.03534 -77.45474 18 ft 19 kts 135°
2026-05-04 13:16 25.03440 -77.45366 21 ft 20 kts 133°
2026-05-04 13:17 25.03346 -77.45260 18 ft 18 kts 136°
2026-05-04 13:17 25.03248 -77.45176 18 ft 17 kts 165°
2026-05-04 13:17 25.03138 -77.45189 20 ft 14 kts 192°
2026-05-04 13:17 25.03089 -77.45231 19 ft 6 kts 270°
2026-05-04 13:18 25.03097 -77.45256 20 ft 0 kts 306°
2026-05-04 13:18 25.03240 -77.45423 19 ft 60 kts 315°
2026-05-04 13:18 25.03674 -77.45903 21 ft 113 kts 314°
2026-05-04 13:19 25.04287 -77.46611 220 ft 136 kts 310°
2026-05-04 13:19 25.04672 -77.47595 646 ft 144 kts 277°
2026-05-04 13:19 25.04641 -77.48692 1161 ft 141 kts 265°
2026-05-04 13:19 25.04529 -77.49758 1479 ft 145 kts 262°
2026-05-04 13:20 25.04433 -77.50918 1649 ft 157 kts 273°
2026-05-04 13:20 25.05023 -77.51920 1993 ft 167 kts 328°
2026-05-04 13:20 25.06179 -77.52168 2459 ft 174 kts 354°
2026-05-04 13:20 25.07371 -77.52366 2883 ft 170 kts 327°
2026-05-04 13:21 25.08035 -77.53341 3298 ft 161 kts 278°
2026-05-04 13:21 25.08154 -77.54575 3655 ft 163 kts 270°
2026-05-04 13:21 25.08142 -77.55815 4061 ft 161 kts 264°
2026-05-04 13:21 25.08014 -77.57047 4424 ft 162 kts 261°
2026-05-04 13:22 25.07837 -77.58272 4762 ft 162 kts 259°
2026-05-04 13:22 25.07640 -77.59498 5093 ft 163 kts 260°
2026-05-04 13:22 25.07439 -77.60732 5418 ft 164 kts 260°
2026-05-04 13:22 25.07245 -77.61974 5750 ft 164 kts 261°
2026-05-04 13:23 25.07051 -77.63213 6076 ft 164 kts 260°
2026-05-04 13:23 25.06864 -77.64455 6390 ft 164 kts 261°
2026-05-04 13:23 25.06680 -77.65703 6682 ft 165 kts 261°
2026-05-04 13:23 25.06500 -77.66954 6980 ft 165 kts 262°
2026-05-04 13:24 25.06320 -77.68188 7277 ft 165 kts 262°
2026-05-04 13:24 25.06138 -77.69438 7568 ft 165 kts 262°
2026-05-04 13:24 25.05957 -77.70690 7853 ft 166 kts 262°
2026-05-04 13:25 25.05594 -77.73200 8444 ft 166 kts 262°
2026-05-04 13:25 25.05411 -77.74459 8734 ft 167 kts 262°
2026-05-04 13:25 25.05226 -77.75720 9025 ft 167 kts 262°
2026-05-04 13:25 25.05042 -77.76982 9316 ft 167 kts 262°
2026-05-04 13:26 25.04857 -77.78245 9609 ft 167 kts 262°
2026-05-04 13:26 25.04674 -77.79508 9897 ft 167 kts 262°
2026-05-04 13:26 25.04490 -77.80776 10152 ft 167 kts 262°
2026-05-04 13:26 25.04305 -77.82047 10405 ft 168 kts 262°
2026-05-04 13:27 25.04122 -77.83319 10659 ft 168 kts 262°
2026-05-04 13:27 25.03937 -77.84577 10906 ft 169 kts 262°
2026-05-04 13:27 25.03751 -77.85854 11161 ft 169 kts 262°
2026-05-04 13:27 25.03564 -77.87132 11409 ft 169 kts 262°
2026-05-04 13:28 25.03380 -77.88414 11662 ft 169 kts 262°
2026-05-04 13:28 25.03192 -77.89697 11917 ft 169 kts 262°
2026-05-04 13:28 25.03005 -77.90980 12161 ft 170 kts 262°
2026-05-04 13:28 25.02817 -77.92265 12403 ft 170 kts 262°
2026-05-04 13:29 25.02629 -77.93551 12640 ft 170 kts 262°
2026-05-04 13:29 25.02442 -77.94839 12875 ft 170 kts 263°
2026-05-04 13:29 25.02253 -77.96130 13101 ft 170 kts 263°
2026-05-04 13:29 25.02064 -77.97423 13331 ft 171 kts 262°
2026-05-04 13:30 25.01874 -77.98716 13549 ft 171 kts 262°
2026-05-04 13:30 25.01688 -77.99995 13779 ft 171 kts 262°
2026-05-04 13:30 25.01497 -78.01290 13987 ft 171 kts 262°
2026-05-04 13:30 25.01308 -78.02584 14188 ft 171 kts 262°
2026-05-04 13:31 25.01118 -78.03882 14380 ft 171 kts 262°
2026-05-04 13:31 25.00928 -78.05182 14567 ft 172 kts 262°
2026-05-04 13:31 25.00737 -78.06485 14751 ft 172 kts 262°
2026-05-04 13:31 25.00546 -78.07790 14932 ft 173 kts 262°
2026-05-04 13:32 25.00355 -78.09096 15108 ft 173 kts 262°
2026-05-04 13:32 25.00163 -78.10405 15285 ft 173 kts 262°
2026-05-04 13:32 24.99971 -78.11715 15439 ft 173 kts 262°
2026-05-04 13:32 24.99778 -78.13027 15622 ft 174 kts 262°
2026-05-04 13:33 24.99582 -78.14345 15794 ft 174 kts 262°
2026-05-04 13:33 24.99388 -78.15663 15975 ft 174 kts 262°
2026-05-04 13:33 24.99190 -78.16984 16158 ft 175 kts 261°
2026-05-04 13:33 24.98992 -78.18289 16330 ft 174 kts 263°
2026-05-04 13:34 24.98893 -78.19626 16497 ft 175 kts 267°
2026-05-04 13:34 24.98862 -78.20973 16669 ft 176 kts 268°
2026-05-04 13:34 24.98833 -78.22322 16830 ft 176 kts 268°
2026-05-04 13:34 24.98796 -78.23672 16986 ft 176 kts 268°
2026-05-04 13:35 24.98748 -78.25023 17140 ft 177 kts 267°
2026-05-04 13:35 24.98625 -78.27721 17435 ft 177 kts 266°
2026-05-04 13:35 24.98552 -78.29079 17582 ft 178 kts 266°
2026-05-04 13:36 24.98473 -78.30439 17716 ft 178 kts 266°
2026-05-04 13:36 24.98392 -78.31800 17867 ft 178 kts 265°
2026-05-04 13:36 24.98306 -78.33173 17956 ft 182 kts 266°
2026-05-04 13:36 24.98229 -78.34586 17998 ft 188 kts 266°
2026-05-04 13:37 24.98152 -78.36048 18011 ft 194 kts 266°
2026-05-04 13:37 24.98074 -78.37551 18020 ft 199 kts 266°
2026-05-04 13:37 24.97992 -78.39096 18023 ft 204 kts 266°
2026-05-04 13:37 24.97932 -78.40138 18024 ft 207 kts 266°
2026-05-04 13:38 24.97826 -78.42277 18023 ft 211 kts 266°
2026-05-04 13:38 24.97745 -78.43901 18024 ft 213 kts 266°
2026-05-04 13:38 24.97663 -78.45541 18026 ft 215 kts 266°
2026-05-04 13:38 24.97578 -78.47196 18023 ft 217 kts 266°
2026-05-04 13:39 24.97493 -78.48842 18027 ft 218 kts 266°
2026-05-04 13:39 24.97407 -78.50521 18025 ft 220 kts 266°
2026-05-04 13:39 24.97317 -78.52205 18024 ft 221 kts 266°
2026-05-04 13:39 24.97216 -78.53891 18025 ft 221 kts 266°
2026-05-04 13:40 24.97133 -78.55586 18024 ft 222 kts 266°
2026-05-04 13:40 24.97047 -78.57286 18023 ft 222 kts 266°
2026-05-04 13:40 24.96959 -78.58987 18024 ft 223 kts 266°
2026-05-04 13:40 24.96869 -78.60693 18024 ft 223 kts 266°
2026-05-04 13:41 24.96775 -78.62398 18023 ft 223 kts 266°
2026-05-04 13:41 24.96689 -78.64110 18027 ft 223 kts 266°
2026-05-04 13:41 24.96599 -78.65823 18026 ft 224 kts 266°
2026-05-04 13:42 24.96418 -78.69247 18024 ft 224 kts 266°
2026-05-04 13:42 24.96325 -78.70959 18027 ft 224 kts 266°
2026-05-04 13:42 24.96233 -78.72676 18027 ft 224 kts 266°
2026-05-04 13:42 24.96142 -78.74390 18026 ft 224 kts 266°
2026-05-04 13:43 24.96050 -78.76106 18027 ft 224 kts 266°
2026-05-04 13:43 24.95958 -78.77823 18024 ft 224 kts 266°
2026-05-04 13:43 24.95867 -78.79537 18025 ft 224 kts 266°
2026-05-04 13:43 24.95775 -78.81230 18028 ft 224 kts 266°
2026-05-04 13:44 24.95681 -78.82943 18025 ft 224 kts 266°
2026-05-04 13:44 24.95588 -78.84659 18026 ft 224 kts 266°
2026-05-04 13:44 24.95494 -78.86373 18027 ft 224 kts 266°
2026-05-04 13:44 24.95400 -78.88087 18028 ft 224 kts 266°
2026-05-04 13:45 24.95307 -78.89798 18027 ft 224 kts 266°
2026-05-04 13:45 24.95213 -78.91512 18025 ft 224 kts 266°
2026-05-04 13:45 24.95119 -78.93225 18023 ft 224 kts 266°
2026-05-04 13:45 24.95025 -78.94937 18026 ft 224 kts 266°
2026-05-04 13:46 24.94931 -78.96653 18026 ft 224 kts 266°
2026-05-04 13:46 24.94836 -78.98365 18024 ft 224 kts 266°
2026-05-04 13:46 24.94744 -79.00053 18025 ft 224 kts 266°
2026-05-04 13:46 24.94649 -79.01761 18026 ft 224 kts 266°
2026-05-04 13:47 24.94555 -79.03473 18021 ft 223 kts 266°
2026-05-04 13:47 24.94460 -79.05180 18023 ft 223 kts 266°
2026-05-04 13:47 24.94364 -79.06889 18027 ft 223 kts 266°
2026-05-04 13:47 24.94270 -79.08596 18019 ft 223 kts 266°
2026-05-04 13:48 24.94174 -79.10304 18023 ft 223 kts 266°
2026-05-04 13:48 24.94078 -79.12018 18025 ft 223 kts 265°
2026-05-04 13:48 24.93982 -79.13726 18028 ft 223 kts 266°
2026-05-04 13:48 24.93886 -79.15430 18028 ft 223 kts 266°
2026-05-04 13:49 24.93788 -79.17135 18027 ft 223 kts 266°
2026-05-04 13:49 24.93735 -79.18834 18024 ft 221 kts 275°
2026-05-04 13:49 24.94405 -79.20359 18035 ft 230 kts 304°
2026-05-04 13:49 24.95529 -79.21639 18021 ft 234 kts 309°
2026-05-04 13:50 24.96695 -79.22868 18028 ft 235 kts 309°
2026-05-04 13:50 24.97872 -79.24119 18025 ft 235 kts 308°
2026-05-04 13:50 24.99017 -79.25402 18027 ft 234 kts 307°
2026-05-04 13:50 25.00140 -79.26705 18027 ft 234 kts 306°
2026-05-04 13:51 25.01259 -79.28010 18029 ft 234 kts 306°
2026-05-04 13:51 25.02379 -79.29319 18028 ft 234 kts 306°
2026-05-04 13:51 25.03497 -79.30629 18029 ft 234 kts 306°
2026-05-04 13:51 25.04616 -79.31939 18032 ft 235 kts 306°
2026-05-04 13:52 25.06853 -79.34564 18033 ft 235 kts 306°
2026-05-04 13:52 25.07975 -79.35877 18029 ft 235 kts 306°
2026-05-04 13:52 25.09075 -79.37174 18026 ft 234 kts 306°
2026-05-04 13:53 25.10196 -79.38486 18029 ft 234 kts 306°
2026-05-04 13:53 25.11308 -79.39801 18028 ft 234 kts 306°
2026-05-04 13:53 25.12413 -79.41118 18031 ft 234 kts 306°
2026-05-04 13:54 25.14619 -79.43757 18031 ft 234 kts 306°
2026-05-04 13:54 25.15732 -79.45070 18031 ft 234 kts 306°
2026-05-04 13:54 25.17958 -79.47687 18034 ft 234 kts 306°
2026-05-04 13:55 25.19072 -79.48996 18032 ft 234 kts 306°
2026-05-04 13:55 25.21298 -79.51613 18032 ft 233 kts 306°
2026-05-04 13:55 25.22410 -79.52921 18034 ft 233 kts 306°
2026-05-04 13:56 25.23521 -79.54231 18032 ft 233 kts 306°
2026-05-04 13:56 25.24631 -79.55538 18033 ft 233 kts 306°
2026-05-04 13:56 25.26838 -79.58136 18034 ft 234 kts 306°
2026-05-04 13:57 25.27949 -79.59448 18032 ft 234 kts 306°
2026-05-04 13:57 25.29065 -79.60763 17911 ft 235 kts 306°
2026-05-04 13:58 25.32449 -79.64747 16973 ft 240 kts 306°
2026-05-04 13:58 25.34350 -79.67002 16434 ft 242 kts 306°
2026-05-04 13:58 25.35503 -79.68364 16118 ft 243 kts 306°
2026-05-04 13:59 25.36656 -79.69729 15804 ft 243 kts 306°
2026-05-04 13:59 25.37814 -79.71098 15497 ft 244 kts 306°
2026-05-04 13:59 25.40015 -79.73927 14880 ft 241 kts 300°
2026-05-04 14:00 25.40985 -79.75434 14581 ft 240 kts 299°
2026-05-04 14:00 25.42898 -79.78453 13985 ft 240 kts 300°
2026-05-04 14:00 25.43876 -79.79950 13676 ft 240 kts 301°
2026-05-04 14:01 25.44867 -79.81442 13340 ft 240 kts 301°
2026-05-04 14:01 25.45851 -79.82936 13013 ft 240 kts 301°
2026-05-04 14:01 25.47826 -79.85936 12360 ft 242 kts 301°
2026-05-04 14:02 25.48807 -79.87420 12038 ft 242 kts 302°
2026-05-04 14:02 25.49799 -79.88924 11718 ft 242 kts 302°
2026-05-04 14:02 25.50803 -79.90450 11396 ft 242 kts 302°
2026-05-04 14:02 25.51781 -79.91936 11091 ft 242 kts 303°
2026-05-04 14:03 25.52772 -79.93439 10791 ft 242 kts 302°
2026-05-04 14:03 25.53764 -79.94945 10480 ft 242 kts 303°
2026-05-04 14:03 25.54754 -79.96451 10172 ft 242 kts 303°
2026-05-04 14:03 25.55745 -79.97960 9866 ft 242 kts 303°
2026-05-04 14:04 25.57717 -80.00958 9212 ft 243 kts 304°
2026-05-04 14:04 25.58730 -80.02498 8877 ft 243 kts 304°
2026-05-04 14:04 25.59727 -80.04016 8561 ft 244 kts 304°
2026-05-04 14:05 25.61724 -80.07060 7927 ft 244 kts 304°
2026-05-04 14:05 25.62725 -80.08587 7613 ft 245 kts 304°
2026-05-04 14:05 25.63716 -80.10091 7322 ft 245 kts 304°
2026-05-04 14:06 25.64724 -80.11626 7019 ft 247 kts 304°
2026-05-04 14:06 25.65735 -80.13170 6706 ft 247 kts 304°
2026-05-04 14:06 25.66683 -80.14757 6419 ft 246 kts 297°
2026-05-04 14:06 25.67387 -80.16484 6091 ft 245 kts 291°
2026-05-04 14:07 25.68013 -80.18230 5753 ft 243 kts 291°
2026-05-04 14:07 25.68634 -80.19957 5428 ft 240 kts 291°
2026-05-04 14:07 25.69273 -80.21643 5203 ft 233 kts 293°
2026-05-04 14:07 25.69909 -80.23257 5107 ft 223 kts 293°
2026-05-04 14:08 25.70490 -80.24802 5065 ft 210 kts 285°
2026-05-04 14:08 25.70522 -80.26368 5047 ft 199 kts 266°
2026-05-04 14:08 25.70395 -80.27880 4996 ft 196 kts 265°
2026-05-04 14:08 25.70251 -80.29383 4867 ft 196 kts 264°
2026-05-04 14:09 25.70088 -80.32366 4559 ft 193 kts 270°
2026-05-04 14:09 25.70068 -80.33830 4421 ft 192 kts 271°
2026-05-04 14:10 25.70039 -80.36808 4166 ft 195 kts 271°
2026-05-04 14:10 25.70181 -80.38284 4022 ft 191 kts 281°
2026-05-04 14:10 25.70274 -80.39757 3841 ft 192 kts 273°
2026-05-04 14:10 25.70277 -80.41237 3684 ft 192 kts 272°
2026-05-04 14:11 25.70258 -80.42713 3536 ft 192 kts 271°
2026-05-04 14:11 25.70209 -80.45678 3259 ft 193 kts 271°
2026-05-04 14:11 25.70177 -80.47161 3116 ft 191 kts 271°
2026-05-04 14:12 25.70142 -80.48619 3067 ft 186 kts 271°
2026-05-04 14:12 25.70158 -80.50022 3040 ft 175 kts 286°
2026-05-04 14:12 25.71924 -80.51351 3024 ft 161 kts 346°
2026-05-04 14:13 25.73021 -80.51621 3020 ft 162 kts 347°
2026-05-04 14:13 25.74131 -80.51867 3028 ft 163 kts 348°
2026-05-04 14:13 25.75251 -80.52098 3020 ft 163 kts 350°
2026-05-04 14:13 25.76329 -80.51845 3012 ft 163 kts 29°
2026-05-04 14:14 25.77294 -80.51179 3014 ft 164 kts 30°
2026-05-04 14:14 25.79021 -80.49506 3022 ft 167 kts 47°
2026-05-04 14:14 25.79395 -80.48292 3010 ft 172 kts 82°
2026-05-04 14:15 25.79494 -80.45528 2683 ft 187 kts 86°
2026-05-04 14:15 25.79538 -80.42606 2196 ft 183 kts 83°
2026-05-04 14:16 25.79673 -80.39906 1752 ft 160 kts 83°
2026-05-04 14:16 25.79718 -80.38748 1518 ft 141 kts 83°
2026-05-04 14:17 25.79800 -80.36711 1157 ft 128 kts 82°
2026-05-04 14:17 25.79852 -80.35742 995 ft 124 kts 84°
2026-05-04 14:17 25.79907 -80.33902 716 ft 120 kts 83°
2026-05-04 14:18 25.79945 -80.32962 545 ft 123 kts 82°
2026-05-04 14:18 25.80038 -80.31061 228 ft 121 kts 82°
2026-05-04 14:19 25.80127 -80.29333 14 ft 86 kts 78°
2026-05-04 14:19 25.80129 -80.28921 17 ft 21 kts 97°
2026-05-04 14:19 25.80097 -80.28846 18 ft 18 kts 132°
2026-05-04 14:19 25.80028 -80.28820 18 ft 9 kts 148°
2026-05-04 14:20 25.80019 -80.28753 19 ft 8 kts 88°
2026-05-04 14:20 25.80019 -80.28682 18 ft 10 kts 105°
2026-05-04 14:20 25.79954 -80.28629 16 ft 12 kts 145°
2026-05-04 14:21 25.79944 -80.28457 13 ft 12 kts 111°
2026-05-04 14:21 25.79890 -80.28416 13 ft 11 kts 161°
2026-05-04 14:21 25.79861 -80.28413 14 ft 1 kts 177°
2026-05-04 14:21 25.79825 -80.28412 14 ft 4 kts 176°